Theta_e
281 281 282 282 282 282 283 283 283 284 284 285 285 285 285 286 286 287 288 287 288 287 287 287 287 286 285 285 285 285 284 284 284 284 284 284 284 283 283 283 282 282 282 282 282 281 281 281 281 281 282 281 281 281 281 281 281 280 281 281 280 281 280 279 278 279 282 284 283 282 281 280 278 279 278 278 279 280 280 280 280 279 279 279 279
280 280 281 282 281 281 282 282 282 283 282 282 282 282 283 284 285 285 285 286 287 286 286 286 286 286 285 285 285 285 284 284 284 284 284 283 283 283 283 282 282 282 282 281 281 281 280 280 280 281 281 280 280 280 280 280 279 279 279 279 279 279 280 278 278 278 277 282 280 281 279 280 278 279 277 278 277 279 279 279 279 279 278 278 279
280 280 280 280 281 281 281 281 281 281 281 281 281 281 281 282 283 283 284 285 285 285 286 286 285 285 285 285 285 284 284 284 284 284 283 283 283 283 282 282 282 281 281 281 281 281 280 280 279 280 280 279 279 279 279 279 279 278 278 278 278 279 279 279 278 277 277 279 281 279 278 278 278 278 278 278 278 278 278 278 277 277 277 278 279
279 279 279 280 280 280 280 280 280 280 280 280 280 280 280 281 281 281 281 283 283 285 285 284 285 285 284 284 284 284 284 284 283 283 283 283 283 283 282 282 282 282 281 281 281 281 280 279 279 280 279 278 278 278 279 278 278 278 277 278 278 277 278 279 279 277 277 277 279 280 279 277 277 279 278 277 277 278 278 278 277 276 277 278 278
278 278 279 278 279 278 278 278 278 278 279 279 279 279 279 280 280 280 280 280 281 281 283 284 284 284 284 284 284 284 284 283 283 283 283 283 283 283 283 282 282 282 282 281 281 281 280 279 280 279 279 278 277 277 278 277 277 277 277 277 277 277 277 278 278 278 277 276 277 280 279 278 278 278 277 275 276 277 276 275 275 275 276 276 276
278 278 278 278 278 277 277 276 276 277 277 277 278 278 278 278 279 279 279 279 280 280 280 280 281 282 283 284 284 284 284 284 283 283 283 283 283 283 282 282 282 282 282 281 281 281 280 280 279 279 279 278 277 277 277 277 277 276 276 276 276 277 276 277 277 276 276 276 276 276 277 276 276 276 276 276 275 274 274 274 274 274 273 273 274
277 277 277 277 277 277 276 276 276 276 276 276 277 277 277 277 277 277 278 278 278 278 278 279 279 279 280 281 282 283 283 283 283 283 283 282 282 282 282 282 282 281 281 281 281 281 281 280 280 279 278 278 277 277 277 277 276 276 276 276 276 276 275 275 275 275 275 275 275 276 275 276 276 274 275 275 275 274 272 271 270 272 273 272 272
276 276 276 275 275 275 276 276 276 276 276 276 275 276 276 276 276 276 276 276 276 276 276 277 278 278 277 277 278 279 280 281 282 282 282 282 281 281 281 281 281 281 281 281 281 280 281 280 280 280 279 279 278 278 278 277 277 276 276 276 276 275 275 275 275 274 274 274 274 274 275 274 274 275 275 273 271 272 272 272 270 270 270 271 272
276 275 275 274 275 275 275 275 276 276 275 275 274 274 274 274 275 275 275 275 275 276 276 276 276 276 277 277 276 276 277 277 278 279 279 280 280 280 280 280 280 280 280 280 280 280 280 280 280 280 280 280 280 279 279 279 277 276 276 276 275 275 274 274 274 274 274 273 273 274 274 273 273 273 271 271 270 270 272 272 270 272 271 270 271
275 274 274 274 275 275 274 274 274 274 274 274 274 274 273 273 273 273 274 274 274 274 275 275 274 274 274 275 276 276 276 277 278 278 278 278 278 279 279 279 279 279 279 279 279 279 279 279 279 280 280 280 280 280 279 279 279 278 277 276 275 274 274 273 273 273 273 273 273 273 273 272 273 273 272 272 272 272 271 271 269 271 272 270 271
274 274 273 274 274 274 273 273 273 273 273 273 273 273 273 273 272 272 273 273 273 273 273 273 273 273 273 274 274 275 276 277 279 279 280 280 279 278 277 277 278 278 278 278 277 278 278 278 278 279 279 279 279 279 279 279 279 279 278 278 277 275 274 273 273 274 273 273 273 273 272 272 273 274 273 272 272 271 270 270 269 269 269 268 267
274 274 273 273 273 273 273 273 272 272 272 272 272 272 272 272 271 271 272 272 272 273 272 272 272 272 273 273 274 274 275 278 278 279 280 280 280 280 279 277 277 277 277 277 277 277 277 277 277 278 278 278 278 278 279 279 279 279 278 278 277 277 277 275 273 273 273 272 272 272 272 272 272 273 272 272 271 270 270 270 269 269 268 268 269
274 273 273 273 273 272 272 271 271 271 271 271 271 271 270 270 270 270 270 271 271 271 271 271 271 271 271 271 272 274 274 278 278 279 279 280 280 280 280 278 277 277 277 276 276 276 276 276 276 276 276 277 277 277 277 277 278 278 278 278 278 277 277 278 277 276 275 273 272 272 273 273 272 272 272 271 271 269 269 269 269 270 270 270 270
273 273 272 272 272 272 271 271 270 270 270 270 270 269 269 269 270 270 270 270 270 270 270 271 270 269 269 269 271 272 273 277 277 278 278 278 278 277 276 276 276 275 275 275 275 275 275 275 275 274 275 275 276 276 276 276 276 276 276 276 276 276 277 277 277 277 276 274 273 272 274 274 272 273 273 273 270 269 269 268 270 269 269 270 271
272 272 272 272 271 271 270 269 269 269 269 269 268 268 268 268 268 269 269 269 269 269 270 269 268 268 268 269 270 271 272 276 277 276 276 276 276 275 274 274 274 274 273 273 274 274 274 274 275 274 274 274 275 275 274 274 275 275 275 275 275 275 275 275 276 276 276 275 275 274 274 275 274 274 273 273 271 271 271 270 270 270 271 272 270
272 272 271 271 270 270 269 269 268 269 268 268 267 267 267 267 267 268 268 269 269 269 269 268 267 267 267 267 269 269 270 274 275 275 275 275 274 274 273 272 272 272 272 272 272 273 273 274 274 273 273 273 274 275 275 274 274 273 273 274 274 275 275 276 277 278 277 276 276 275 275 275 275 274 274 272 272 272 272 272 272 270 269 267 266
271 271 270 270 269 269 268 267 267 266 267 267 266 266 266 266 267 268 267 267 268 268 268 268 268 267 266 266 267 269 269 271 274 274 274 273 272 272 272 272 271 270 270 271 272 272 272 272 273 273 272 272 273 275 275 275 273 272 272 272 273 273 274 275 276 278 278 278 278 278 277 277 277 277 277 276 273 273 271 269 268 269 267 265 266
271 270 270 270 269 268 267 267 266 266 266 265 266 266 266 266 266 267 266 266 266 267 267 268 267 266 265 266 266 266 267 268 271 273 273 273 272 271 271 271 270 270 270 270 271 271 272 272 272 271 272 271 273 274 275 275 272 272 271 271 271 271 272 273 272 274 277 278 278 278 278 278 278 277 277 277 276 274 270 268 269 269 266 267 265
270 270 269 269 268 267 266 266 265 265 265 265 265 264 265 266 266 266 266 266 266 267 267 267 267 267 265 264 265 264 265 266 268 271 272 272 271 270 270 270 269 269 270 270 270 270 270 271 271 271 271 271 272 273 274 275 273 272 271 271 270 270 271 272 271 270 271 271 271 272 273 274 274 275 275 276 276 275 271 270 271 268 266 267 267
270 270 269 267 267 267 266 265 265 264 263 263 264 264 265 265 265 265 265 266 266 267 266 266 265 266 266 265 264 263 263 265 265 269 270 271 271 270 270 269 268 268 268 269 269 269 269 269 270 270 271 272 273 273 273 274 273 272 272 271 270 269 272 272 271 271 270 270 271 272 272 273 273 272 271 271 271 273 273 271 271 270 268 268 268
269 268 268 267 266 266 266 265 263 262 262 262 263 263 264 264 264 264 264 265 265 265 264 265 265 265 265 265 265 263 262 262 263 267 269 270 270 270 269 268 268 268 268 267 268 268 269 269 270 269 269 270 271 272 273 273 274 273 272 271 271 272 273 271 271 272 270 270 270 270 271 271 271 271 271 271 271 271 272 272 271 271 270 268 268
268 267 266 266 266 265 264 263 262 262 261 261 261 262 264 263 263 263 264 264 263 263 263 264 264 265 265 264 263 263 263 261 262 265 267 269 269 270 269 268 268 267 267 267 267 268 268 268 268 268 269 269 270 271 272 272 272 272 272 273 274 274 273 273 272 271 271 270 270 270 270 270 270 270 270 270 270 270 271 271 270 270 270 270 269
267 266 265 264 264 263 262 262 261 261 260 261 260 260 263 263 262 262 262 262 262 261 262 262 262 263 264 265 265 263 262 262 262 263 265 267 268 269 269 269 269 269 267 266 267 267 268 268 268 268 268 269 270 270 271 272 272 271 272 272 271 271 270 270 270 270 270 269 269 268 269 269 269 269 269 269 270 269 269 270 270 270 269 270 270
266 264 264 263 263 262 261 260 260 260 260 260 260 260 261 262 262 263 262 262 263 262 263 262 262 262 262 264 264 264 263 264 263 263 263 266 268 268 268 268 269 267 267 267 267 268 267 267 267 268 268 269 270 270 270 269 269 270 270 269 269 268 268 268 268 268 268 267 267 267 267 268 268 268 268 269 270 269 268 268 268 267 267 268 268
264 263 263 262 261 261 260 260 260 260 260 259 259 260 260 260 261 262 261 261 262 262 262 262 262 262 262 262 263 264 264 264 264 263 263 264 266 267 268 268 267 266 265 266 266 266 266 267 268 268 269 269 268 267 267 266 267 267 267 267 267 267 267 267 267 267 266 266 266 267 266 267 268 268 268 268 267 267 267 267 266 266 266 266 266
263 262 262 261 261 260 259 259 259 259 259 259 259 259 259 259 260 261 261 261 261 261 261 262 262 261 262 263 263 263 263 264 264 264 263 264 264 265 266 265 265 265 266 266 266 266 267 267 267 266 267 266 266 265 265 265 265 264 264 264 264 265 265 265 265 265 265 266 266 266 266 267 267 268 267 267 266 266 267 266 267 266 265 265 265
262 261 261 261 260 259 259 259 260 260 259 259 259 259 259 259 259 260 260 260 260 261 261 261 261 261 262 263 263 263 263 264 264 264 265 265 266 265 265 264 264 264 265 265 265 265 265 265 265 265 265 265 264 264 264 263 263 264 264 263 264 264 264 264 264 264 264 264 264 265 266 266 267 264 264 265 265 266 267 266 266 266 266 266 265
261 261 261 260 260 260 259 258 258 259 259 258 258 259 259 259 259 259 260 260 260 261 261 261 261 262 262 263 263 263 263 264 264 264 265 265 266 266 266 265 265 265 265 265 265 264 264 264 264 264 264 263 264 264 264 264 263 262 263 263 262 262 262 263 263 262 263 264 264 264 263 263 262 263 264 263 263 264 265 263 263 263 264 264 263
261 260 260 260 259 259 259 259 258 258 258 258 258 258 258 259 259 259 260 260 260 261 261 261 262 262 262 262 262 262 262 262 263 264 265 266 265 265 265 265 265 265 265 265 263 261 262 263 263 263 263 262 263 263 264 263 263 261 258 261 262 261 261 262 262 262 262 262 261 262 261 262 261 262 261 261 261 262 263 262 262 261 262 262 260
260 260 260 260 260 259 259 259 259 258 258 258 258 258 257 258 259 259 260 261 261 262 263 262 263 263 263 263 263 262 262 263 265 266 266 266 266 265 265 265 265 265 265 265 265 263 263 262 263 262 262 262 262 262 262 262 262 262 262 261 260 261 260 260 261 261 260 260 261 260 260 260 260 260 260 260 260 261 261 260 260 261 260 260 259
260 260 260 260 259 259 259 259 258 258 258 257 257 257 258 259 261 262 262 261 261 263 265 266 267 265 263 263 263 264 263 263 264 265 265 266 266 264 264 264 265 265 265 264 263 263 262 261 261 261 261 261 261 261 261 261 260 261 260 260 260 259 259 259 260 259 259 259 259 259 259 259 259 259 259 259 259 259 260 260 259 259 259 259 258
260 260 260 260 259 258 258 258 257 257 257 257 257 257 257 258 259 259 261 260 261 263 264 264 265 265 264 263 262 262 263 263 263 264 264 264 263 263 263 265 265 263 262 262 261 260 261 260 260 260 260 259 260 259 259 259 259 259 259 258 258 258 258 257 257 257 258 258 258 257 257 258 258 257 258 257 257 257 258 258 258 258 258 258 258
259 259 259 259 259 258 257 258 257 257 256 256 256 256 256 257 257 258 259 260 261 261 262 262 262 262 262 262 263 263 262 262 263 262 261 261 262 263 264 264 262 261 260 260 259 259 259 259 259 259 259 258 259 258 258 258 258 258 258 258 258 257 256 254 255 256 256 257 257 257 257 256 256 256 256 256 256 255 256 256 257 257 256 256 256
259 259 259 259 258 258 258 258 257 257 257 256 256 255 255 256 256 255 256 257 258 258 258 258 257 257 258 258 260 260 261 261 260 259 259 261 264 262 262 261 260 259 258 257 258 257 258 258 258 257 257 257 257 257 257 257 257 257 257 257 256 256 254 254 255 255 255 255 255 255 255 255 255 255 255 255 255 255 255 255 255 254 254 255 254
259 257 256 256 258 258 258 258 257 257 256 256 256 255 255 255 254 254 255 255 256 256 257 256 256 255 255 256 257 257 257 257 257 258 260 263 260 259 260 258 257 257 256 256 256 256 256 256 256 256 256 256 256 256 256 256 256 256 256 256 255 255 255 255 255 254 254 254 254 254 254 254 254 254 254 253 253 253 253 253 253 253 253 253 253
258 258 259 257 257 258 258 258 257 257 256 256 255 255 254 254 254 254 254 254 254 255 255 255 255 254 254 255 255 256 256 256 257 259 261 260 258 257 256 256 255 255 255 255 255 255 254 255 255 255 255 255 255 255 255 255 255 255 255 255 254 254 254 254 254 253 253 254 253 253 253 253 253 252 253 252 251 251 252 252 252 252 252 252 252
258 259 259 259 259 258 258 257 257 256 255 254 254 254 254 253 253 253 254 254 254 254 255 255 254 255 255 254 254 255 255 255 257 258 258 257 256 255 255 255 254 254 254 254 254 254 254 254 254 254 254 254 254 254 254 254 254 253 253 254 254 253 253 253 253 252 253 253 252 251 250 251 251 251 251 251 251 251 251 251 251 251 251 250 250
258 258 259 258 258 257 257 256 256 254 254 254 254 254 254 253 253 253 253 254 254 254 254 254 253 254 254 255 254 253 253 254 254 254 254 254 253 254 254 254 253 253 254 254 253 253 253 253 253 253 253 254 253 253 253 253 253 253 253 252 253 253 252 251 250 250 250 251 251 250 251 250 250 250 250 250 250 250 250 250 250 250 250 249 250
258 256 255 255 255 256 257 256 255 255 254 254 254 254 253 253 254 254 254 254 253 253 253 254 254 254 254 254 254 253 253 253 253 253 253 253 253 253 253 253 253 253 253 253 252 252 253 253 253 253 253 253 253 253 253 253 253 253 253 252 252 252 252 252 251 250 251 251 250 250 250 250 250 250 250 250 249 249 249 249 249 249 249 249 249
258 258 257 255 255 255 255 255 255 254 254 254 254 254 253 253 253 253 253 253 253 253 253 253 253 253 254 252 252 253 252 253 253 253 253 253 253 252 252 252 252 252 252 252 252 252 252 252 253 253 252 252 252 252 253 252 252 252 252 252 252 251 251 251 251 250 250 250 250 250 250 249 249 249 249 249 249 249 248 248 249 249 248 248 249
258 258 255 255 255 255 254 254 254 254 255 254 254 254 254 253 253 253 253 253 253 253 253 253 253 254 253 252 253 253 253 253 253 252 252 251 252 251 252 252 252 252 252 252 252 252 252 252 252 252 252 252 252 252 252 252 251 251 251 251 251 251 250 249 249 249 249 249 249 249 249 248 248 249 249 249 249 249 249 249 248 249 249 248 248
257 257 256 256 255 255 254 254 255 254 253 253 253 253 253 253 253 253 253 252 253 253 253 253 253 253 252 252 252 253 253 253 252 252 251 251 251 251 251 252 252 252 252 252 252 252 252 252 252 252 252 251 251 251 251 251 251 251 251 250 250 250 250 250 249 248 248 249 248 248 248 248 248 248 248 248 248 249 248 248 248 248 248 248 248
255 256 256 255 255 255 254 255 255 254 254 253 253 252 252 252 252 252 252 252 252 252 253 253 254 253 251 251 251 252 252 252 250 250 251 251 251 251 251 251 252 252 252 252 252 252 252 252 252 252 252 251 251 251 251 251 251 251 251 250 249 249 249 249 248 248 248 248 248 247 246 247 248 248 248 248 248 248 248 247 247 248 248 248 248
255 256 255 255 255 254 254 254 253 253 254 253 252 252 252 252 252 252 252 251 251 252 252 253 253 253 252 251 250 250 251 252 251 251 250 250 250 251 251 252 252 251 251 250 250 250 251 251 252 251 250 251 250 249 251 251 251 250 250 249 249 248 248 248 248 248 248 248 248 247 247 247 247 248 247 247 247 247 247 247 247 247 247 247 247
256 255 255 255 254 254 254 253 253 253 252 252 252 253 252 252 252 252 252 252 251 252 252 252 252 252 252 252 251 251 251 251 250 250 250 250 250 250 251 251 251 250 251 251 250 248 249 251 251 249 249 249 248 249 249 249 249 250 250 249 248 248 248 248 248 248 247 247 248 248 248 248 247 248 247 247 247 246 247 247 247 246 246 246 247
256 255 254 254 253 253 253 253 252 252 252 252 252 253 253 253 252 251 251 251 251 251 252 252 252 251 251 252 252 251 251 251 250 250 250 250 250 250 251 251 251 250 250 251 249 247 249 250 250 250 249 249 248 248 248 247 247 247 247 248 249 249 249 248 247 246 246 246 247 248 248 247 247 247 246 247 248 247 247 246 246 246 246 246 246
255 254 254 253 253 253 253 252 252 252 252 252 251 251 251 252 252 251 250 250 250 250 251 252 252 252 251 251 251 251 250 250 250 250 249 249 250 250 250 250 249 249 249 248 247 247 247 248 250 250 249 249 248 247 248 248 248 248 247 248 248 247 248 248 246 247 247 246 247 248 248 248 247 247 246 246 246 247 246 246 246 245 245 246 246
255 254 254 253 253 252 252 252 252 250 251 251 251 251 251 251 251 250 251 251 250 249 250 251 251 251 251 251 251 250 250 251 250 250 250 250 249 249 249 248 248 250 249 248 247 247 248 248 249 249 248 247 247 248 248 248 248 248 248 248 247 247 246 244 245 245 247 247 246 246 246 247 247 247 246 246 245 246 246 246 246 246 246 246 246
254 254 253 253 253 252 252 252 252 252 252 252 251 251 250 250 250 251 251 250 250 250 251 251 251 251 251 250 250 250 250 250 250 250 249 250 250 249 249 248 247 247 248 249 248 247 247 248 248 248 249 248 248 248 247 247 247 247 247 247 246 242 243 244 246 246 245 245 246 246 246 246 245 245 245 245 245 246 246 245 245 245 245 245 245
254 253 253 252 252 252 252 252 252 252 251 251 250 250 250 250 250 250 250 250 250 250 250 250 250 250 250 250 249 249 249 249 249 249 249 250 250 249 249 247 246 247 248 248 248 247 247 247 246 247 247 248 248 247 248 247 247 248 247 247 243 243 244 244 244 243 245 246 246 247 247 246 246 246 246 246 245 244 244 245 245 245 245 244 244
253 252 252 252 252 251 251 251 251 251 251 251 250 250 250 250 251 251 250 250 249 250 250 250 250 250 249 250 249 249 249 249 250 250 249 249 249 248 247 246 246 246 246 247 248 247 247 246 247 247 247 246 247 247 247 247 247 247 245 243 243 244 244 244 246 245 244 245 246 246 246 245 245 245 245 246 245 245 244 244 244 244 244 245 245
Wind_Speed
15 14 13 13 15 15 14 13 13 11 11 10 8 7 6 6 5 5 6 6 6 7 8 9 9 9 9 9 10 10 10 10 10 10 10 11 11 11 10 11 12 11 10 12 11 11 12 12 12 12 11 10 9 8 9 10 9 9 9 9 10 10 11 11 12 13 10 6 6 6 7 8 8 9 9 8 8 10 12 10 11 10 10 9 10
13 14 12 12 14 13 13 12 12 11 11 10 10 9 8 6 6 5 5 6 5 6 7 7 7 8 8 9 9 10 10 10 10 10 11 11 11 9 10 12 12 12 11 12 12 9 11 10 10 11 11 9 9 9 8 8 8 9 9 9 9 9 11 10 11 11 11 8 7 6 6 8 7 9 10 10 10 10 12 10 9 10 10 9 9
12 12 12 12 13 12 11 11 11 12 12 10 11 10 9 9 8 6 5 5 4 4 5 6 6 7 7 7 8 8 9 9 9 10 10 11 11 11 10 12 12 12 13 13 12 11 10 10 10 9 7 8 9 9 8 8 8 9 9 8 9 11 10 11 9 10 11 12 9 8 7 7 9 9 10 9 8 10 11 11 9 9 8 10 9
12 13 13 13 12 11 11 11 11 11 11 10 11 11 10 9 8 8 8 6 5 4 4 4 5 6 6 7 7 8 8 8 9 9 11 11 11 12 11 12 12 12 12 12 12 10 9 9 10 11 8 8 9 9 9 8 9 8 9 9 9 10 10 10 12 10 9 11 12 11 8 8 8 7 7 7 8 9 9 8 8 7 8 8 8
12 13 13 13 12 11 11 10 10 11 10 9 10 10 10 9 8 8 8 8 7 6 5 4 4 4 4 6 7 7 8 8 9 9 9 10 11 11 11 11 12 12 12 11 11 9 9 9 8 8 8 8 9 9 9 10 9 8 9 9 9 9 8 9 10 11 10 11 9 9 8 7 8 8 8 9 8 7 6 7 7 7 8 8 7
12 12 12 13 12 12 10 9 9 10 9 9 9 8 8 8 8 7 8 8 7 7 7 6 5 5 4 4 5 6 7 8 9 10 10 10 10 10 9 10 10 11 11 10 10 8 8 8 8 8 8 9 10 9 9 9 8 9 9 9 9 9 9 9 9 9 10 10 10 8 7 8 7 8 9 9 9 8 7 6 5 5 7 7 7
12 11 12 12 11 11 10 9 8 8 8 8 7 7 7 7 7 7 6 6 6 6 6 6 5 4 4 4 4 4 5 6 7 8 8 8 8 7 8 8 9 8 8 7 7 8 8 8 8 9 13 11 10 9 9 10 9 10 9 9 9 8 9 8 9 9 10 10 9 10 8 8 9 8 8 9 9 8 9 8 7 7 7 8 7
12 12 11 10 10 10 9 9 8 7 7 7 7 7 7 7 6 5 5 5 5 5 5 5 5 4 4 4 4 3 3 4 6 7 7 7 7 8 8 8 8 9 8 7 8 8 9 8 8 8 12 12 11 11 10 10 9 10 9 8 9 9 9 8 8 9 9 9 9 9 9 8 8 8 6 9 8 7 8 9 9 9 8 7 8
11 11 11 11 11 9 9 8 8 8 7 7 7 7 6 6 6 6 5 5 4 4 4 4 4 4 4 3 3 3 2 2 3 3 4 6 6 7 8 8 8 8 8 7 8 7 7 7 7 10 11 13 15 13 12 12 10 10 10 9 10 9 9 8 9 9 9 9 9 9 9 9 10 9 9 9 11 11 9 8 7 7 6 7 8
10 11 11 11 11 10 9 9 9 9 8 8 7 7 5 5 5 5 5 5 4 4 4 3 3 3 3 3 2 2 1 1 2 4 5 4 4 5 5 6 6 6 6 7 7 6 6 7 8 13 14 15 16 17 17 16 16 12 9 9 10 10 10 9 9 9 9 10 10 10 10 11 10 11 11 10 9 7 8 9 8 7 6 7 7
10 11 11 10 11 10 8 8 9 9 8 8 8 8 8 6 5 5 5 4 4 4 4 4 3 3 3 2 3 2 2 2 6 5 4 5 5 4 4 4 5 5 5 6 7 6 6 6 6 9 12 13 13 17 16 17 17 17 14 12 12 10 10 10 9 9 9 10 9 9 10 10 11 11 10 9 9 10 9 7 6 6 8 7 9
10 11 10 10 10 11 10 10 9 9 8 8 9 8 7 7 6 5 5 5 4 4 3 3 3 3 3 2 2 2 3 5 6 6 5 6 5 4 3 3 4 4 4 5 5 6 5 5 6 5 6 8 7 9 13 15 16 16 16 14 16 16 15 11 9 9 9 9 8 10 9 10 9 9 8 8 8 7 6 6 7 8 9 9 10
10 11 11 11 10 10 10 10 9 9 9 8 8 7 7 7 6 6 6 5 5 4 3 3 3 2 2 2 2 3 3 6 5 5 5 6 7 2 4 3 3 3 3 4 4 4 4 4 5 4 4 8 8 5 6 8 13 16 16 16 17 18 19 19 16 10 8 9 9 9 10 8 8 8 7 7 6 7 6 7 8 9 9 11 10
10 11 11 12 11 9 10 10 10 8 8 8 7 7 7 6 6 6 5 5 4 5 4 4 4 3 3 3 2 3 4 6 5 6 7 9 9 6 4 2 1 2 1 0 1 2 3 3 3 3 3 4 4 4 5 4 6 9 11 10 9 13 17 19 20 18 12 8 9 10 9 8 8 7 7 9 10 9 8 9 9 9 11 12 10
11 11 11 11 10 10 10 10 10 11 10 8 7 7 6 6 6 5 5 5 4 4 4 3 3 4 4 3 3 3 4 9 5 6 7 8 8 6 4 4 3 4 4 3 2 1 1 2 3 3 3 4 3 5 5 5 6 7 9 9 10 10 11 13 13 12 13 10 10 9 7 6 7 7 6 8 11 9 9 10 11 10 9 6 1
11 11 10 10 9 9 10 10 10 11 10 10 8 7 7 6 6 5 5 5 4 3 3 2 2 3 3 3 2 3 4 10 7 6 6 7 7 4 4 4 5 4 4 4 3 2 1 1 3 2 2 3 4 8 7 5 6 8 9 9 9 9 10 12 15 15 12 10 10 10 10 7 8 7 8 8 8 8 6 6 5 6 5 6 10
11 12 11 10 9 9 9 10 9 9 10 9 9 9 7 6 6 5 5 5 4 4 2 2 1 1 2 3 3 2 3 8 9 7 6 7 6 3 3 3 3 4 4 3 3 4 3 3 1 1 2 2 3 7 8 8 6 7 7 7 7 7 8 7 12 17 19 20 20 17 16 15 17 17 16 17 12 10 8 9 10 7 9 11 11
12 12 11 10 9 8 8 9 9 9 9 9 9 8 8 6 5 4 5 5 5 4 3 1 0 1 2 2 3 3 3 6 9 8 7 6 6 3 2 2 2 2 2 2 2 2 4 5 4 2 1 0 2 5 7 8 7 7 7 7 9 8 8 4 3 7 15 18 19 19 19 18 20 20 19 19 19 15 10 13 11 7 9 12 11
12 12 10 10 9 8 7 8 8 8 8 8 7 8 8 8 6 5 4 4 4 3 2 2 1 0 1 1 3 3 3 5 8 8 8 5 3 2 1 1 0 1 0 1 1 1 1 1 3 1 1 1 2 3 5 6 5 7 6 7 7 9 7 5 5 5 4 5 5 5 6 5 5 6 9 17 21 20 11 10 8 10 11 12 11
14 9 6 5 6 8 8 8 7 7 8 8 7 7 7 6 5 5 4 4 4 3 2 1 1 1 0 1 0 1 2 3 5 8 7 6 3 0 2 1 2 1 1 1 2 1 1 1 1 1 3 3 5 5 6 7 4 5 6 6 7 7 6 6 6 5 5 6 6 6 6 5 2 3 3 3 4 7 10 10 10 10 9 11 12
9 6 7 6 7 8 8 8 8 7 6 7 7 6 6 6 4 4 5 4 3 3 2 2 2 2 1 1 1 1 1 3 5 8 8 7 6 1 2 1 2 2 2 1 2 2 1 1 1 1 4 5 6 7 8 8 8 5 7 8 8 8 8 8 9 11 8 7 7 6 6 7 8 6 4 4 6 4 5 8 9 10 10 11 13
6 8 7 8 9 8 7 6 5 6 5 5 5 6 6 3 3 4 4 3 2 2 2 3 2 2 2 2 2 2 1 3 4 6 7 6 5 3 2 2 2 1 2 2 2 2 2 2 1 2 4 6 6 7 8 8 9 6 6 9 12 12 7 6 7 8 8 8 8 8 8 7 7 7 6 5 5 5 6 6 7 8 7 9 10
6 7 7 7 8 7 5 5 5 4 4 4 4 5 5 4 3 3 3 4 3 3 2 1 2 2 3 3 2 1 1 2 4 4 6 6 4 3 3 2 3 2 3 3 3 3 2 2 2 4 6 7 7 7 9 9 8 4 4 4 9 10 5 2 2 1 3 5 5 6 7 6 6 7 7 7 6 5 5 7 8 8 8 8 9
6 7 7 7 7 5 5 5 4 4 4 4 4 5 4 4 4 4 3 4 4 3 2 2 2 2 3 3 2 1 1 1 3 4 5 7 5 4 3 2 1 0 2 3 3 2 3 3 3 5 6 8 9 6 7 8 5 7 8 8 8 8 4 2 0 1 1 2 3 4 5 5 5 6 7 7 6 5 5 4 4 5 6 6 6
7 7 7 6 5 4 4 4 5 4 3 3 4 4 4 3 4 3 3 3 3 3 2 1 2 2 2 2 1 1 0 1 2 2 4 6 6 4 3 4 5 3 1 1 2 2 3 6 7 6 6 5 5 4 5 5 5 5 5 4 4 2 1 0 2 3 4 4 5 5 4 4 5 5 3 2 2 3 4 4 4 5 5 5 6
7 7 6 6 5 4 4 5 5 4 4 3 3 4 4 4 4 4 3 3 2 3 2 2 2 2 2 1 1 0 1 1 0 0 1 2 3 3 4 4 2 1 3 3 3 5 6 6 7 6 5 4 3 2 1 2 4 4 4 3 2 2 2 2 2 3 6 7 6 6 6 5 5 4 2 2 4 6 5 5 5 5 4 5 6
8 7 7 6 4 3 4 4 3 3 3 3 3 3 3 3 3 4 3 2 2 2 2 2 2 2 2 2 1 0 1 1 1 1 1 1 1 2 2 2 3 4 3 2 2 2 1 2 3 3 4 4 3 1 1 1 1 0 0 0 0 1 2 2 3 3 4 5 5 7 7 6 4 1 4 5 6 6 7 7 6 7 7 7 7
7 8 7 6 4 4 4 4 4 4 3 2 3 3 3 3 3 4 3 2 2 2 2 2 2 2 2 2 2 2 3 2 1 1 1 1 2 2 2 3 4 3 3 3 2 1 1 2 2 2 1 3 4 3 2 1 1 1 0 0 0 0 1 2 2 2 3 3 2 1 1 2 3 5 5 4 4 5 4 4 5 6 5 5 6
7 7 6 6 4 3 4 4 3 3 3 3 3 3 3 3 3 3 3 3 3 2 1 2 2 3 3 3 3 3 3 2 1 2 4 5 6 4 3 2 2 3 4 4 1 2 2 4 6 6 5 5 5 5 5 4 2 1 1 1 1 1 1 2 2 3 3 3 4 4 4 3 4 4 4 5 5 4 4 5 5 5 6 6 7
6 7 6 6 5 3 3 3 4 5 4 3 4 3 5 7 6 4 3 4 8 9 7 4 5 5 3 3 3 3 2 2 3 5 6 8 3 4 4 6 6 6 9 11 9 6 6 5 5 5 5 5 5 5 6 5 4 4 2 0 1 1 0 1 2 2 1 2 2 2 3 2 3 3 3 3 4 3 3 3 4 4 5 7 7
6 6 6 6 4 3 4 5 4 4 5 4 3 4 3 2 6 8 5 2 3 7 9 9 5 4 2 2 2 2 2 3 6 7 8 8 5 8 7 8 12 7 2 3 4 5 5 4 4 3 4 4 5 5 4 4 4 3 2 1 0 1 1 1 0 0 0 1 1 1 1 2 2 2 2 3 2 3 2 3 3 4 5 6 7
7 7 5 5 3 3 4 4 4 4 4 4 3 3 3 3 1 2 1 1 4 7 5 4 5 5 4 2 2 2 3 3 3 5 5 5 7 7 10 9 3 9 6 3 2 2 3 4 5 4 3 4 4 3 3 4 2 1 1 1 1 1 0 2 2 1 0 0 1 0 1 1 1 1 2 2 2 3 3 4 4 4 4 5 5
7 7 5 5 4 3 3 4 4 4 4 4 3 2 3 3 3 1 2 2 4 4 3 5 7 8 7 6 5 5 4 4 4 6 8 7 11 10 6 5 8 8 5 2 2 4 4 5 5 5 4 5 4 3 3 3 3 2 1 2 3 0 2 3 2 0 0 1 1 1 1 1 2 2 2 2 2 3 3 3 4 4 4 5 6
7 6 5 4 4 4 4 4 4 4 4 4 3 3 3 3 3 3 3 2 1 2 2 4 5 5 5 6 6 6 6 6 7 7 6 10 5 7 5 3 5 7 4 2 2 5 5 5 5 5 5 4 4 4 4 4 3 4 3 1 0 1 2 1 0 0 0 0 0 0 1 2 1 1 2 2 2 2 3 3 4 4 5 5 5
5 5 5 6 5 4 4 4 4 4 4 4 4 4 4 4 3 4 3 3 3 3 2 1 3 4 3 4 4 5 5 6 6 6 8 7 8 5 4 3 3 1 1 0 1 2 3 3 4 4 3 3 4 2 4 3 3 3 3 2 2 1 1 1 0 1 0 0 0 1 1 0 1 1 1 1 2 2 3 3 3 3 3 4 5
4 4 4 4 5 5 5 5 4 4 4 4 4 4 3 3 3 4 4 4 4 4 3 2 1 3 4 4 3 4 5 5 6 6 7 6 7 6 1 1 2 1 1 1 1 1 1 1 2 2 2 1 1 1 2 3 3 2 2 2 2 2 2 2 1 1 0 1 0 1 1 1 0 1 2 2 2 3 3 2 3 3 3 4 4
3 4 4 5 5 5 5 5 5 5 4 3 3 4 3 3 3 4 4 5 5 5 4 3 2 2 2 1 1 2 3 5 6 6 5 5 6 2 1 1 1 1 1 1 1 1 2 3 2 3 2 3 2 2 2 2 2 2 2 2 1 2 1 1 1 0 0 0 0 1 1 0 0 0 1 2 3 2 2 2 2 3 3 3 4
4 4 5 5 5 5 6 5 5 3 4 4 5 4 4 4 4 5 4 5 5 4 5 4 3 3 2 1 2 1 1 3 3 3 1 1 1 1 1 2 2 3 3 2 2 2 3 2 2 3 3 2 3 2 2 2 2 2 3 3 2 1 3 4 3 3 1 0 0 1 0 0 1 0 1 1 2 2 2 2 2 3 3 3 4
3 4 5 6 6 6 6 5 5 5 5 5 5 4 4 4 5 5 5 5 5 5 4 4 4 4 3 1 1 1 2 2 2 1 1 1 1 1 1 2 3 3 3 3 2 3 3 3 2 3 3 3 3 3 3 2 3 2 2 3 3 2 3 2 2 1 1 0 0 1 0 0 1 0 1 1 1 1 1 2 3 3 3 4 4
4 4 3 3 4 5 4 4 5 5 4 5 5 4 4 4 5 5 5 5 5 5 4 4 4 3 2 2 2 2 2 3 2 2 2 3 3 2 2 3 3 3 3 2 3 3 3 3 3 3 4 3 3 3 3 3 3 3 3 3 3 2 1 1 1 1 1 0 1 1 0 0 0 1 0 1 2 2 2 3 3 3 4 4 5
4 4 4 4 4 5 6 5 5 6 5 5 5 4 5 4 5 5 5 6 6 5 5 3 3 2 2 3 5 5 4 4 3 3 3 2 2 3 3 3 3 3 3 3 3 3 3 3 3 3 3 3 3 3 3 3 3 3 3 2 1 1 1 1 1 1 1 1 1 1 0 1 0 1 2 2 2 2 3 3 4 4 4 5 5
4 5 5 4 2 5 6 5 5 5 6 5 5 5 4 4 5 5 5 6 5 5 5 5 3 2 3 6 7 8 6 4 3 3 3 3 3 3 3 3 3 3 3 3 2 2 3 3 3 4 4 3 3 3 3 3 3 3 2 2 2 2 2 2 1 1 1 1 1 1 0 0 0 1 1 2 3 3 3 4 4 4 5 5 5
5 5 5 3 5 7 6 7 5 5 5 5 6 6 5 5 5 5 5 5 6 5 6 6 5 2 3 5 5 6 5 5 4 4 3 3 3 3 4 3 3 3 2 2 1 2 2 3 4 4 4 3 3 4 4 4 3 3 2 2 2 1 2 2 2 2 1 1 1 1 1 1 1 2 3 2 2 3 4 3 3 3 3 4 4
5 4 3 5 6 6 5 6 6 6 6 6 6 5 4 5 5 5 6 6 6 5 6 6 5 5 4 2 4 4 5 5 4 4 3 3 3 4 4 3 3 2 2 2 2 2 2 3 3 2 1 2 1 1 1 2 2 2 1 2 2 2 2 2 2 2 2 3 3 2 2 1 1 2 2 2 1 2 3 2 3 3 3 4 3
6 6 7 7 7 6 6 5 5 5 5 4 5 6 4 5 6 6 5 6 5 6 6 6 5 5 4 4 5 5 5 5 3 3 3 3 3 4 4 3 2 2 2 2 2 2 2 3 3 4 4 3 2 2 2 2 1 1 1 1 1 2 2 2 1 1 1 2 2 2 3 3 2 2 2 1 2 2 3 3 3 3 3 4 4
6 7 6 6 6 5 5 6 4 5 5 5 6 6 6 6 6 6 5 5 5 6 6 6 5 5 5 5 5 3 5 5 4 3 3 3 3 3 4 3 1 1 2 1 2 3 3 4 4 5 5 4 4 3 2 2 1 1 1 1 1 1 1 1 1 1 2 2 2 2 2 2 2 1 1 1 1 2 2 3 3 3 3 4 4
7 6 6 6 6 6 5 5 6 6 5 6 5 6 6 7 6 6 5 6 6 5 6 6 6 6 5 5 5 5 4 5 5 4 4 4 3 3 3 2 1 2 1 2 2 2 3 3 4 5 5 5 4 3 3 2 2 2 1 1 1 0 1 1 2 2 2 2 2 2 2 2 2 1 2 1 2 3 3 3 3 3 4 4 4
7 6 6 5 6 6 7 6 6 6 6 6 6 6 6 6 6 6 6 5 6 5 6 6 6 6 5 6 5 5 5 5 5 3 3 3 4 4 3 2 2 2 1 2 2 3 3 4 4 4 4 4 4 4 3 2 2 1 1 1 1 1 2 2 1 1 1 2 2 2 1 1 1 1 1 1 2 3 3 4 4 4 4 4 4
6 6 6 6 6 6 6 6 5 6 6 6 6 6 5 6 6 6 6 6 6 6 6 6 6 6 5 5 5 5 5 4 5 5 4 4 4 3 3 3 2 2 2 3 3 3 3 3 4 4 4 4 4 4 3 3 3 2 2 1 2 3 4 5 3 2 2 2 2 2 1 1 1 1 1 2 2 3 4 4 4 5 5 5 5
6 6 6 6 6 6 5 5 6 6 5 5 5 6 6 5 6 6 6 6 6 6 6 6 6 6 5 5 4 5 5 5 6 5 4 4 4 3 3 3 3 3 3 3 4 4 4 4 3 3 3 3 3 3 3 4 3 3 2 2 3 5 5 6 5 4 4 2 3 2 2 2 2 2 2 2 2 2 3 4 5 4 5 5 6
6 6 6 6 6 6 6 6 6 6 5 5 5 5 6 6 6 6 6 6 6 6 6 5 5 5 5 5 4 5 5 5 6 5 4 4 4 3 3 3 3 3 3 3 3 4 4 4 4 4 4 3 3 4 3 3 3 2 3 3 4 5 5 5 3 6 6 3 2 2 3 3 3 3 3 4 3 3 3 5 5 4 5 6 6
Wind_Direction
351 349 347 348 351 353 352 353 354 356 360 4 358 352 344 330 314 299 287 266 248 237 234 228 220 215 211 208 209 206 204 205 205 206 209 211 213 214 214 212 215 219 218 218 214 212 215 218 218 216 212 210 212 212 211 211 209 216 219 221 225 225 226 233 243 255 254 239 246 204 173 163 183 191 192 191 186 190 201 201 198 194 201 210 210
349 345 345 343 347 350 350 353 355 355 1 8 9 6 2 356 342 327 298 284 267 251 243 236 230 224 216 215 213 212 210 208 206 205 209 210 211 211 211 211 214 218 218 220 214 209 210 215 216 214 209 208 210 210 208 203 203 207 215 218 222 223 219 225 238 247 250 228 213 209 160 184 199 187 194 193 194 190 196 198 200 198 204 207 213
343 343 340 342 344 346 347 352 356 357 1 5 5 5 5 5 2 354 341 324 311 285 269 253 240 231 226 224 220 217 215 213 211 209 211 211 211 210 209 210 213 216 216 219 216 211 207 210 213 207 201 204 209 213 207 206 202 206 212 211 218 222 220 221 230 238 241 243 232 220 187 185 202 195 191 205 195 195 194 196 196 197 202 205 203
344 342 338 339 341 344 347 349 353 356 360 2 2 3 2 4 6 5 3 359 346 328 307 290 269 249 240 235 228 224 222 219 215 214 215 214 216 217 214 212 216 217 218 217 213 211 207 210 215 207 197 204 212 213 211 208 206 207 208 211 218 218 218 220 223 234 241 246 237 235 210 179 201 203 181 194 193 193 192 195 193 195 191 198 205
342 341 339 337 340 344 345 347 348 351 353 354 358 358 359 1 2 4 3 5 6 359 349 339 308 278 261 252 245 238 233 227 225 223 220 220 221 220 218 216 215 218 218 215 212 207 206 210 209 197 191 206 213 210 211 202 201 205 207 210 213 215 215 218 224 227 233 238 241 239 219 204 198 196 179 178 184 187 191 192 192 191 196 199 203
338 339 338 338 337 340 342 345 345 346 345 346 349 353 354 358 358 3 2 360 3 6 5 2 353 333 308 287 269 258 248 237 232 232 229 223 223 224 223 219 217 216 217 217 215 212 212 211 205 189 196 208 213 207 199 195 189 202 205 205 208 211 211 215 219 223 228 233 232 231 212 202 196 194 188 185 184 181 186 189 191 197 197 202 207
335 335 337 334 334 337 338 342 343 341 342 341 342 344 349 352 356 357 357 358 2 2 4 2 0 357 340 329 305 284 268 259 251 244 238 231 226 222 224 225 225 225 224 218 211 214 214 206 202 197 214 212 209 205 201 206 201 206 204 196 200 199 205 210 212 216 221 227 230 229 225 209 202 202 191 189 197 188 182 179 199 203 207 207 208
332 332 333 331 332 333 334 334 334 334 336 338 340 343 344 348 350 349 352 357 360 359 357 356 353 5 357 360 342 329 297 275 261 253 244 238 232 231 233 231 231 229 224 215 213 215 214 208 202 202 216 216 213 213 203 206 204 205 207 192 195 198 203 205 206 212 216 220 224 224 220 212 210 207 184 174 189 206 199 193 201 199 202 211 214
329 330 330 330 329 329 330 330 329 331 332 334 336 339 340 341 342 342 347 349 348 349 350 356 352 357 1 7 9 6 355 324 311 288 262 249 239 238 235 232 230 231 228 223 219 214 209 214 208 217 219 217 214 208 204 202 201 203 202 191 195 199 203 209 210 210 216 217 222 223 223 218 212 196 188 190 197 202 194 192 215 210 197 206 217
322 326 327 326 327 326 327 328 330 332 335 335 335 334 332 333 333 337 341 344 345 343 344 350 355 354 352 357 8 22 1 309 283 264 252 252 246 238 238 238 234 232 233 231 228 218 208 218 219 220 218 217 216 214 211 207 205 207 196 184 187 197 198 202 205 209 210 214 217 214 216 220 212 208 203 205 199 193 190 193 202 209 205 217 223
320 323 324 325 324 325 325 326 329 330 334 334 334 335 334 333 329 331 333 336 334 336 336 347 354 350 354 358 359 359 344 331 334 322 303 265 237 227 231 239 236 237 237 233 235 229 218 212 218 220 221 222 219 215 212 209 208 210 202 189 185 186 190 199 208 206 208 217 218 212 215 219 217 213 212 205 199 190 193 192 197 196 207 205 225
319 322 323 322 321 322 323 324 325 326 330 331 332 332 331 329 329 330 332 335 333 336 338 341 344 344 342 348 359 356 343 341 333 336 323 304 280 244 221 222 224 226 229 229 235 236 223 209 218 213 212 219 216 219 217 214 212 211 209 204 199 197 197 191 196 204 205 211 212 215 216 219 216 208 207 200 189 183 190 193 202 201 211 219 228
313 319 321 319 317 316 319 320 319 321 322 326 326 326 327 327 326 331 328 328 326 327 331 340 343 345 346 339 353 350 331 349 353 340 345 9 23 330 240 211 213 223 218 215 221 227 229 217 210 207 213 219 219 207 200 216 219 213 212 212 208 208 213 212 204 197 195 205 213 218 214 213 208 207 192 177 163 190 189 204 210 215 217 227 232
307 312 316 317 314 314 314 316 315 313 316 318 319 319 320 320 322 319 315 317 321 321 327 338 346 347 344 336 338 347 345 355 10 35 44 44 44 48 41 53 81 71 63 146 222 218 220 224 210 198 186 200 210 181 190 188 202 216 218 212 209 213 216 220 223 220 210 205 214 223 219 198 210 208 172 176 197 205 198 209 212 216 219 227 233
305 309 311 314 312 313 313 313 312 311 312 310 312 311 309 311 314 311 314 313 312 314 318 330 339 334 334 335 341 356 357 360 23 38 48 51 54 58 57 63 70 71 60 60 53 66 196 208 221 207 168 187 206 180 186 192 196 208 212 212 215 215 216 222 225 226 227 220 220 227 215 195 197 207 169 186 197 201 200 204 205 208 218 227 209
301 306 306 308 306 309 312 310 309 309 308 306 303 302 305 306 308 307 307 304 299 293 293 297 317 330 338 337 329 360 351 6 14 38 54 57 53 56 56 62 63 61 60 47 57 64 73 165 195 192 163 182 212 210 203 198 199 211 212 213 217 219 221 220 222 224 225 227 225 226 229 209 199 196 184 182 193 198 207 215 213 200 194 218 234
300 308 304 301 299 303 307 307 303 300 302 300 299 299 299 301 301 305 304 297 300 301 298 300 311 335 344 349 346 343 5 1 7 21 61 61 59 50 52 65 68 65 56 62 70 57 49 52 74 139 169 178 212 216 214 203 205 211 214 216 216 221 229 224 226 231 235 236 238 234 231 230 229 226 221 205 194 188 191 213 218 200 217 230 240
305 306 303 302 298 299 302 303 297 291 293 291 294 295 297 295 291 299 297 296 297 297 302 281 257 36 11 4 6 337 5 355 2 8 33 66 68 52 25 63 58 90 99 57 51 63 51 57 66 70 78 203 243 226 234 215 197 210 212 216 219 224 228 207 183 235 240 245 248 248 248 246 234 230 229 226 216 197 179 215 216 188 210 230 235
307 306 301 300 298 298 297 297 289 289 287 288 288 286 288 290 296 296 284 284 281 281 288 276 253 157 77 13 3 360 338 345 350 353 357 31 69 46 16 336 14 328 333 103 86 77 76 53 31 52 97 288 269 251 246 244 193 205 208 215 221 228 230 219 216 230 243 262 281 292 292 292 277 258 250 241 232 215 193 199 194 193 217 225 230
310 302 288 285 291 298 298 296 287 287 288 286 286 279 280 281 280 287 290 284 288 295 284 271 265 251 135 218 344 350 326 325 338 337 336 335 351 328 305 289 287 233 263 297 288 261 232 257 191 316 312 290 271 268 261 256 227 196 210 227 227 226 230 228 220 218 228 232 243 252 257 273 251 207 227 302 313 262 217 201 201 204 207 221 229
302 282 288 285 289 295 298 297 292 286 283 286 286 283 276 275 281 280 281 282 296 297 301 287 270 264 232 287 272 336 347 323 324 335 335 333 323 300 281 278 291 280 271 255 260 261 265 236 264 350 309 303 289 281 275 272 273 252 210 221 235 241 232 233 231 221 220 226 228 233 244 245 247 249 240 236 236 241 249 212 206 211 207 221 232
286 287 284 290 293 295 294 287 286 286 287 285 284 282 278 268 273 270 275 296 292 282 301 281 277 283 297 272 278 294 354 350 323 331 340 341 339 322 263 282 257 252 260 251 266 268 266 290 306 330 309 295 288 276 274 273 275 278 273 260 252 256 253 244 232 222 229 236 238 241 241 240 243 245 239 231 224 221 231 230 213 219 223 220 219
284 282 285 283 290 289 283 284 284 281 279 278 276 279 281 266 258 259 269 269 259 265 247 273 273 265 279 265 263 276 327 321 341 325 333 340 342 337 301 276 283 220 232 252 265 271 279 293 292 298 286 287 286 278 276 276 265 280 306 56 75 73 66 61 52 200 218 221 218 224 228 231 240 243 248 250 249 234 231 238 237 221 227 235 243
284 282 279 281 287 286 284 284 281 279 278 282 274 269 272 277 270 255 249 263 262 246 236 204 232 238 242 253 242 241 22 345 344 339 326 333 335 334 344 302 56 359 273 273 276 284 281 285 298 294 289 282 289 330 48 50 37 41 52 49 58 68 71 67 171 201 210 221 223 224 231 238 245 253 252 256 256 258 256 242 227 220 230 245 256
286 275 276 280 278 276 284 284 287 285 285 282 283 281 270 256 267 246 229 242 248 253 243 208 238 241 244 243 217 154 94 13 336 343 322 314 319 323 331 24 37 27 282 278 283 280 284 277 271 286 305 325 4 360 354 24 30 36 35 35 357 350 60 131 256 239 240 240 241 240 231 234 241 245 254 268 286 279 263 255 223 227 232 233 249
278 272 275 278 274 273 277 274 261 261 271 274 266 272 280 278 271 271 256 248 235 239 242 221 213 227 233 221 188 102 18 320 304 356 287 273 290 333 350 22 25 356 284 278 283 285 288 307 318 324 308 325 332 14 341 16 50 47 48 40 295 283 278 262 241 240 251 251 248 246 246 244 237 241 219 250 262 263 262 262 257 244 220 222 241
275 274 272 278 272 262 267 277 290 267 251 261 259 262 258 265 258 262 259 252 235 224 230 228 219 202 206 189 200 283 290 274 259 184 212 236 227 206 190 191 218 240 236 227 230 245 262 280 301 318 317 320 309 308 198 214 269 242 128 103 360 297 280 267 264 264 262 257 257 257 260 262 264 360 259 253 253 257 261 263 259 260 262 254 249
274 277 277 278 276 274 269 266 267 273 264 257 267 261 243 235 253 253 252 239 233 221 207 227 220 211 221 236 243 252 248 244 220 224 221 253 286 270 227 233 237 232 236 226 187 190 226 250 257 254 265 272 261 253 243 227 242 279 338 344 53 50 305 292 287 260 265 277 280 306 282 261 260 262 263 260 265 266 268 274 273 277 276 277 268
267 263 267 271 264 255 271 279 280 283 282 269 253 254 269 265 251 256 238 247 247 255 236 226 250 252 254 273 266 250 242 234 224 241 260 259 272 267 232 225 231 261 253 251 179 160 213 253 265 261 258 256 261 260 260 258 250 132 123 248 198 179 200 225 250 262 260 260 259 257 255 253 256 256 257 260 257 257 266 268 272 271 275 269 268
264 265 262 267 271 257 266 278 288 291 286 287 292 273 232 238 244 248 267 232 230 245 245 258 246 258 246 241 227 239 243 261 283 285 303 301 4 64 330 316 306 291 278 272 266 257 242 246 250 248 245 245 247 252 255 257 261 258 237 190 258 254 222 218 263 268 265 260 260 250 250 252 253 248 247 249 256 252 261 271 272 270 260 261 261
268 268 260 265 248 262 281 287 284 291 290 288 286 296 307 247 239 252 246 287 282 268 264 263 287 104 142 200 175 213 284 299 295 295 287 283 349 342 318 309 294 293 288 247 240 239 247 246 245 239 245 251 254 254 261 264 264 259 245 161 171 155 140 131 225 230 244 186 236 240 256 254 259 267 258 265 262 269 266 258 254 263 258 260 260
268 272 268 269 245 228 267 266 270 271 283 279 273 284 292 298 230 205 231 332 296 309 308 338 352 17 60 66 297 278 273 286 291 291 334 331 325 318 301 288 70 69 50 46 244 248 246 257 258 252 249 249 249 248 253 258 255 250 241 217 184 117 138 102 82 40 333 261 245 250 283 278 279 279 277 278 282 276 273 272 266 264 268 270 268
256 261 263 263 258 239 246 268 269 276 274 276 268 258 274 281 284 244 194 271 298 296 337 16 15 6 4 354 337 322 312 310 309 16 355 315 291 282 258 67 49 36 19 335 272 271 261 254 253 256 253 253 246 241 244 243 250 249 256 259 260 194 78 63 65 90 18 308 302 289 291 293 284 280 276 272 273 270 275 271 274 271 271 270 270
247 256 261 261 259 267 267 270 270 275 278 272 269 271 264 268 278 284 294 294 204 180 103 48 30 11 7 354 349 350 342 342 357 348 324 287 320 53 27 46 63 55 53 296 280 264 265 261 257 251 252 248 248 242 241 239 238 246 244 230 141 102 106 156 210 181 116 121 316 56 279 277 290 280 277 270 270 274 270 272 275 274 272 271 275
258 252 247 257 264 265 267 270 269 275 272 271 268 262 265 264 264 266 268 278 289 290 269 168 96 45 350 333 343 347 343 344 340 317 300 310 46 5 358 306 273 221 114 135 258 264 260 261 259 260 247 241 247 232 243 234 240 232 234 220 205 181 187 184 159 97 82 121 280 301 309 347 297 293 287 288 284 283 284 280 278 280 284 285 287
251 266 272 244 245 260 266 272 271 270 266 268 262 259 262 259 259 264 266 263 268 270 264 267 316 329 313 305 318 325 333 331 322 311 320 342 19 20 324 272 274 246 233 187 207 235 246 258 262 248 243 239 226 221 236 230 227 221 223 216 204 198 201 219 224 197 315 287 26 69 45 294 6 307 288 280 265 261 269 281 282 286 285 282 280
278 281 280 277 274 275 275 272 269 265 260 258 253 251 248 246 251 255 259 262 263 264 270 280 282 227 198 193 225 297 319 318 316 321 336 350 4 358 302 287 275 288 246 221 224 233 251 247 237 248 236 239 235 234 235 221 190 187 174 190 162 178 194 210 172 113 211 180 89 76 58 14 353 325 297 280 284 274 266 265 272 277 281 296 306
282 289 295 297 294 281 273 269 264 231 250 243 243 246 250 255 257 254 253 254 251 254 258 252 236 255 259 235 135 238 293 285 292 275 297 341 360 336 297 268 260 256 261 246 238 249 250 244 233 234 233 228 235 224 215 194 178 176 162 163 180 167 130 110 90 93 97 180 149 112 219 181 97 301 282 268 276 286 285 288 285 288 284 279 271
275 252 256 272 272 276 279 274 268 259 252 246 248 243 250 260 261 261 263 261 252 243 243 241 239 239 230 227 240 202 247 250 228 244 275 309 296 276 269 259 249 243 241 247 237 239 241 238 222 217 222 223 210 203 196 184 176 178 168 170 173 179 177 208 154 146 196 214 122 102 104 277 82 56 294 283 276 270 284 291 287 282 279 282 282
294 301 291 276 287 276 265 262 263 257 256 254 251 248 255 261 264 267 265 260 257 254 236 231 226 222 203 165 225 242 253 256 256 260 283 284 286 273 253 243 241 240 243 243 244 236 231 231 214 214 206 202 199 191 191 179 175 167 174 191 191 189 177 180 185 190 230 212 235 237 222 110 90 97 262 270 277 287 285 285 287 287 286 280 283
297 293 293 289 275 287 272 263 262 260 262 252 253 252 256 259 264 265 265 267 269 268 263 244 241 227 192 203 227 230 241 249 256 264 264 267 271 270 255 240 234 238 241 243 244 233 226 219 203 203 198 190 183 187 174 176 169 177 186 179 181 195 167 106 114 129 117 144 224 222 168 117 203 263 272 274 290 285 281 284 281 281 279 277 272
284 291 293 297 281 285 282 272 271 262 253 251 249 249 253 253 259 262 267 269 270 267 269 265 247 221 205 218 228 232 238 239 238 254 250 239 247 256 248 244 236 234 239 242 238 231 218 203 198 196 196 185 170 170 155 159 176 189 180 194 203 183 214 205 165 111 157 198 135 153 156 201 186 247 263 290 285 288 289 286 289 287 283 280 277
276 282 287 284 292 290 282 283 275 269 260 253 253 248 249 254 262 266 266 259 260 260 262 265 267 235 211 212 230 237 237 237 238 235 242 245 243 250 249 242 234 223 226 239 242 238 226 205 194 195 200 181 175 174 182 189 182 194 198 178 167 175 214 211 170 168 176 178 186 145 162 193 237 255 269 274 276 280 282 287 283 282 281 275 279
276 279 275 282 289 282 275 269 268 260 257 256 256 256 252 256 258 258 260 258 256 254 257 260 263 261 259 205 192 217 228 236 240 228 224 235 239 242 244 237 230 219 206 214 212 205 212 202 196 153 118 139 121 87 156 144 148 168 170 167 173 181 201 207 212 208 202 218 220 187 200 199 220 263 260 259 262 270 269 266 274 273 279 282 272
283 286 293 295 289 285 283 273 267 265 262 260 254 256 253 256 261 264 257 259 258 256 258 260 258 257 254 245 233 228 231 243 237 224 229 227 230 234 241 236 217 212 216 207 180 175 194 194 166 144 150 137 136 144 131 121 128 153 162 185 216 211 214 197 189 153 165 196 204 207 221 218 217 224 234 234 241 254 266 267 271 284 279 275 273
289 291 286 282 282 279 279 279 274 271 266 261 264 268 267 268 265 262 258 256 256 257 260 258 257 251 252 253 249 243 241 242 232 225 229 229 228 230 230 229 214 208 214 205 158 182 192 180 170 163 157 152 155 155 139 131 142 119 127 171 201 202 108 111 119 150 175 195 203 199 190 187 204 222 241 275 262 259 273 283 279 269 272 279 273
285 279 277 274 275 277 277 274 275 272 270 264 259 260 263 263 263 263 258 251 254 256 253 256 255 254 251 247 244 243 240 240 243 233 220 225 229 229 222 206 203 214 198 180 175 177 177 182 169 159 157 155 153 153 158 157 157 157 173 180 185 138 179 165 160 193 182 189 202 198 191 212 207 226 199 224 267 257 258 263 266 266 266 271 280
284 282 276 273 272 272 275 272 270 260 258 257 256 257 257 258 260 259 264 263 246 243 248 250 248 252 250 248 246 240 241 242 241 226 224 220 215 215 207 192 208 215 187 170 176 182 174 173 161 152 150 150 156 166 166 165 166 167 176 187 179 190 116 131 181 186 186 161 184 203 185 211 239 235 258 226 260 285 277 281 276 272 269 267 268
283 279 277 274 269 270 271 268 264 264 263 262 262 257 255 255 253 256 257 254 255 254 251 251 251 250 249 248 245 242 240 237 239 237 221 220 214 208 192 195 193 198 209 196 177 174 176 163 157 160 158 163 168 165 164 172 177 182 186 193 150 153 184 199 200 174 151 171 184 195 209 218 220 241 236 248 255 259 268 274 280 279 279 274 271
289 287 282 280 271 269 267 262 261 261 261 254 254 259 260 257 263 263 260 257 256 256 253 250 251 251 247 247 241 238 235 235 237 230 215 217 212 203 186 176 189 195 200 197 181 172 172 160 157 152 156 158 162 169 174 178 191 184 185 167 150 183 195 198 195 163 173 194 185 194 202 222 222 237 249 241 245 241 252 267 271 275 272 270 268
301 297 291 286 283 281 273 271 269 263 257 252 254 256 262 264 268 267 261 257 259 261 257 254 253 252 250 248 244 242 238 236 239 236 220 213 206 192 182 181 191 192 198 187 172 168 167 158 166 161 163 163 170 176 182 182 187 181 149 150 177 195 193 189 196 193 197 191 193 196 207 213 225 232 240 246 240 237 246 265 268 265 275 276 275